Sault Ste Marie, MI

9:19 AM EST on February 24, 2018 (GMT -0500)
Sault Ste Marie Municipal / Sanderson Field

Weather History for KANJ - November, 2014

Change the Weather History Date:

Monday, November 3, 2014

  Actual Average Record
Temperature  
Mean Temperature 46 °F 39 °F  
Max Temperature 54 °F 46 °F 74 °F (1938)
Min Temperature 37 °F 32 °F 8 °F (1951)
Degree Days  
Heating Degree Days 19 26  
Month to date heating degree days 82 77  
Since 1 July heating degree days 1120 1082  
Moisture  
Dew Point 36 °F    
Average Humidity 68    
Maximum Humidity 85    
Minimum Humidity 50    
Precipitation  
Precipitation T in 0.11 in 0.90 in (1977)
Month to date precipitation T 0.34  
Year to date precipitation 30.51 27.13  
Snow  
Snow 0.00 in 0.30 in 2.70 in (1966)
Month to date snowfall 0.0 0.8  
Since 1 July snowfall T 2.4  
Snow Depth 0.00 in    
Sea Level Pressure  
Sea Level Pressure 29.96 in    
Wind  
Wind Speed 5 mph (SSE)    
Max Wind Speed 13 mph    
Max Gust Speed -    
Visibility 10 miles    
Events      
T = Trace of Precipitation, MM = Missing Value Source: NWS Daily Summary

Daily Weather History Graph

Daily Weather History Graph

Search for Another Location

Airport or City:

Trip Planner

Search our weather history database for the weather conditions in past years. The results will help you decide how hot, cold, wet, or windy it might be!

Date:

Astronomy

Nov. 03, 2014 Rise Set
Actual Time 7:21 AM EST 5:19 PM EST
Civil Twilight 6:50 AM EST 5:51 PM EST
Nautical Twilight 6:14 AM EST 6:26 PM EST
Astronomical Twilight 5:39 AM EST 7:01 PM EST
Moon 3:39 PM EST (11/3) 3:17 AM EST (11/3)
Length of Visible Light 11h 00m
Length of Day
9h 57m
Waxing Gibbous, 87% of the Moon is Illuminated
Nov 3
Waxing Gibbous
Nov 6
Full
Nov 14
Last Quarter
Nov 22
New
Nov 29
First Quarter

Hourly Weather History & Observations

Time (EST) Temp. Windchill Dew Point Humidity Pressure Visibility Wind Dir Wind Speed Gust Speed Precip Events Conditions
12:55 AM 41.0 °F - 36.0 °F 82% 30.09 in 10.0 mi Calm Calm - N/A   Overcast
1:55 AM 42.1 °F - 35.1 °F 76% 30.08 in 10.0 mi Calm Calm - N/A   Overcast
2:55 AM 41.0 °F 39.0 °F 35.1 °F 79% 30.06 in 10.0 mi East 3.5 mph - N/A   Clear
3:55 AM 42.1 °F 37.1 °F 33.1 °F 70% 30.04 in 10.0 mi SW 8.1 mph - N/A   Clear
4:55 AM 42.1 °F 38.4 °F 34.0 °F 73% 30.02 in 10.0 mi SW 5.8 mph - N/A   Clear
5:55 AM 42.1 °F 40.2 °F 35.1 °F 76% 30.02 in 10.0 mi SSW 3.5 mph - N/A   Clear
6:55 AM 37.0 °F 33.3 °F 34.0 °F 89% 30.01 in 10.0 mi East 4.6 mph - N/A   Clear
7:55 AM 37.0 °F 32.4 °F 34.0 °F 89% 30.02 in 10.0 mi East 5.8 mph - N/A   Clear
8:55 AM 41.0 °F - 36.0 °F 82% 30.01 in 10.0 mi Calm Calm - N/A   Clear
9:55 AM 46.0 °F 44.8 °F 37.0 °F 71% 29.99 in 10.0 mi SE 3.5 mph - N/A   Clear
10:55 AM 50.0 °F - 36.0 °F 59% 29.98 in 10.0 mi SSW 9.2 mph - N/A   Clear
11:55 AM 52.0 °F - 36.0 °F 54% 29.96 in 10.0 mi SSW 11.5 mph - N/A   Clear
12:55 PM 54.0 °F - 36.0 °F 51% 29.94 in 10.0 mi SSW 10.4 mph - N/A   Clear
1:55 PM 53.1 °F - 36.0 °F 52% 29.94 in 10.0 mi SSW 12.7 mph - N/A   Clear
2:55 PM 52.0 °F - 37.0 °F 57% 29.94 in 10.0 mi SSW 11.5 mph - N/A   Mostly Cloudy
3:55 PM 48.9 °F - 35.1 °F 59% 29.93 in 10.0 mi SSW 6.9 mph - N/A   Mostly Cloudy
4:55 PM 48.0 °F - 35.1 °F 61% 29.92 in 10.0 mi SSW 5.8 mph - N/A   Clear
5:55 PM 46.0 °F 44.8 °F 34.0 °F 63% 29.92 in 10.0 mi SSW 3.5 mph - N/A   Clear
6:55 PM 45.0 °F - 34.0 °F 65% 29.93 in 10.0 mi Calm Calm - N/A   Overcast
7:55 PM 45.0 °F 43.5 °F 36.0 °F 71% 29.92 in 10.0 mi SSE 3.5 mph - N/A   Mostly Cloudy
8:55 PM 45.0 °F 41.2 °F 37.0 °F 74% 29.90 in 10.0 mi SE 6.9 mph - 0.00 in   Overcast
9:55 PM 44.1 °F 41.5 °F 37.9 °F 79% 29.90 in 10.0 mi SE 4.6 mph - N/A   Overcast
10:47 PM 44.1 °F 41.5 °F 39.0 °F 82% 29.87 in 10.0 mi SE 4.6 mph - N/A   Overcast
10:55 PM 44.1 °F 41.5 °F 39.0 °F 82% 29.87 in 10.0 mi ESE 4.6 mph - N/A   Overcast
11:30 PM 45.0 °F 42.6 °F 39.0 °F 80% 29.85 in 10.0 mi ESE 4.6 mph - N/A   Overcast
11:55 PM 45.0 °F 41.8 °F 39.9 °F 82% 29.85 in 10.0 mi ESE 5.8 mph - N/A   Overcast